Time,TemperatureF,DewpointF,PressureIn,WindDirection,WindDirectionDegrees,WindSpeedMPH,WindSpeedGustMPH,Humidity,HourlyPrecipIn,Conditions,Clouds,dailyrainin,SoftwareType,DateUTC
2013-05-30 00:03:00,75.0,66.2,29.91,SSE,160,0.0,2.0,74,0.00,,CLR,0.00,VWS V14.01,2013-05-30 05:03:00,
2013-05-30 00:08:00,75.0,66.6,29.91,SSE,161,1.0,4.0,75,0.00,,CLR,0.00,VWS V14.01,2013-05-30 05:08:00,
2013-05-30 00:13:00,75.0,66.6,29.91,SE,142,0.0,5.0,75,0.00,,CLR,0.00,VWS V14.01,2013-05-30 05:13:00,
2013-05-30 00:18:00,74.9,66.4,29.91,SE,142,0.0,5.0,75,0.00,,CLR,0.00,VWS V14.01,2013-05-30 05:18:00,
2013-05-30 00:23:00,74.9,66.4,29.91,ESE,119,0.0,4.0,75,0.00,,CLR,0.00,VWS V14.01,2013-05-30 05:23:00,
2013-05-30 00:29:00,74.8,66.3,29.92,SE,143,0.0,5.0,75,0.00,,CLR,0.00,VWS V14.01,2013-05-30 05:29:00,
2013-05-30 00:34:00,74.8,66.7,29.92,South,183,1.0,4.0,76,0.00,,CLR,0.00,VWS V14.01,2013-05-30 05:34:00,
2013-05-30 00:39:00,74.8,66.7,29.91,South,174,0.0,4.0,76,0.00,,CLR,0.00,VWS V14.01,2013-05-30 05:39:00,
2013-05-30 00:44:00,74.7,66.6,29.91,ESE,117,0.0,1.0,76,0.00,,SCT090,0.00,VWS V14.01,2013-05-30 05:44:00,
2013-05-30 00:49:00,74.6,66.5,29.90,SE,146,0.0,2.0,76,0.00,,SCT090,0.00,VWS V14.01,2013-05-30 05:49:00,
2013-05-30 00:54:00,74.5,66.8,29.90,ESE,113,0.0,1.0,77,0.00,,SCT090,0.00,VWS V14.01,2013-05-30 05:54:00,
2013-05-30 00:59:00,74.4,66.7,29.91,SE,133,0.0,2.0,77,0.00,,SCT090,0.00,VWS V14.01,2013-05-30 05:59:00,
2013-05-30 01:04:00,74.5,66.8,29.91,SE,134,0.0,1.0,77,0.00,,SCT090,0.00,VWS V14.01,2013-05-30 06:04:00,
2013-05-30 01:09:00,74.5,66.8,29.90,South,173,0.0,4.0,77,0.00,,SCT090,0.00,VWS V14.01,2013-05-30 06:09:00,
2013-05-30 01:14:00,74.4,66.7,29.90,South,173,0.0,1.0,77,0.00,,SCT090,0.00,VWS V14.01,2013-05-30 06:14:00,
2013-05-30 01:19:00,74.4,66.7,29.90,South,169,0.0,4.0,77,0.00,,SCT090,0.00,VWS V14.01,2013-05-30 06:19:00,
2013-05-30 01:24:00,74.4,66.7,29.90,SE,136,0.0,0.0,77,0.00,,SCT090,0.00,VWS V14.01,2013-05-30 06:24:00,
2013-05-30 01:29:00,74.4,67.1,29.90,South,190,3.0,5.0,78,0.00,,SCT090,0.00,VWS V14.01,2013-05-30 06:29:00,
2013-05-30 01:34:00,74.5,67.2,29.90,South,189,0.0,1.0,78,0.00,,SCT090,0.00,VWS V14.01,2013-05-30 06:34:00,
2013-05-30 01:39:00,74.6,67.3,29.90,ESE,108,0.0,5.0,78,0.00,,SCT090,0.00,VWS V14.01,2013-05-30 06:39:00,
2013-05-30 01:44:00,74.7,67.4,29.90,SE,132,7.0,7.0,78,0.00,,SCT080,0.00,VWS V14.01,2013-05-30 06:44:00,
2013-05-30 01:49:00,74.7,67.0,29.89,ESE,108,0.0,7.0,77,0.00,,SCT080,0.00,VWS V14.01,2013-05-30 06:49:00,
2013-05-30 01:54:00,74.8,67.1,29.89,SSE,167,0.0,2.0,77,0.00,,SCT080,0.00,VWS V14.01,2013-05-30 06:54:00,
2013-05-30 01:59:00,74.8,67.1,29.89,SSE,157,0.0,4.0,77,0.00,,SCT080,0.00,VWS V14.01,2013-05-30 06:59:00,
2013-05-30 02:04:00,74.8,67.1,29.89,South,182,0.0,3.0,77,0.00,,BKN090,0.00,VWS V14.01,2013-05-30 07:04:00,
2013-05-30 02:09:00,74.7,67.4,29.89,SE,129,0.0,5.0,78,0.00,,BKN090,0.00,VWS V14.01,2013-05-30 07:09:00,
2013-05-30 02:14:00,74.6,67.3,29.89,ESE,107,0.0,6.0,78,0.00,,BKN090,0.00,VWS V14.01,2013-05-30 07:14:00,
2013-05-30 02:19:00,74.5,67.2,29.89,SE,127,0.0,6.0,78,0.00,,BKN090,0.00,VWS V14.01,2013-05-30 07:19:00,
2013-05-30 02:24:00,74.4,67.1,29.89,ESE,122,2.0,6.0,78,0.00,,BKN090,0.00,VWS V14.01,2013-05-30 07:24:00,
2013-05-30 02:29:00,74.4,67.1,29.89,South,185,5.0,6.0,78,0.00,,BKN090,0.00,VWS V14.01,2013-05-30 07:29:00,
2013-05-30 02:34:00,74.5,67.2,29.89,South,180,0.0,5.0,78,0.00,,BKN090,0.00,VWS V14.01,2013-05-30 07:34:00,
2013-05-30 02:39:00,74.5,67.2,29.89,South,180,0.0,5.0,78,0.00,,BKN090,0.00,VWS V14.01,2013-05-30 07:39:00,
2013-05-30 02:44:00,74.5,67.2,29.89,South,171,2.0,6.0,78,0.00,,SCT100,0.00,VWS V14.01,2013-05-30 07:44:00,
2013-05-30 02:49:00,74.6,67.3,29.89,SSE,150,0.0,7.0,78,0.00,,SCT100,0.00,VWS V14.01,2013-05-30 07:49:00,
2013-05-30 02:54:00,74.6,67.3,29.89,South,186,0.0,2.0,78,0.00,,SCT100,0.00,VWS V14.01,2013-05-30 07:54:00,
2013-05-30 02:59:00,74.6,67.3,29.89,South,186,3.0,9.0,78,0.00,,SCT100,0.00,VWS V14.01,2013-05-30 07:59:00,
2013-05-30 03:04:00,74.7,67.4,29.89,South,171,0.0,4.0,78,0.00,,SCT100,0.00,VWS V14.01,2013-05-30 08:04:00,
2013-05-30 03:09:00,74.7,67.4,29.88,SSE,159,1.0,7.0,78,0.00,,SCT100,0.00,VWS V14.01,2013-05-30 08:09:00,
2013-05-30 03:14:00,74.7,67.4,29.89,SSE,150,1.0,6.0,78,0.00,,SCT100,0.00,VWS V14.01,2013-05-30 08:14:00,
2013-05-30 03:19:00,74.6,67.3,29.88,SSW,192,0.0,7.0,78,0.00,,SCT100,0.00,VWS V14.01,2013-05-30 08:19:00,
2013-05-30 03:24:00,74.5,67.6,29.88,ESE,103,1.0,1.0,79,0.00,,SCT100,0.00,VWS V14.01,2013-05-30 08:24:00,
2013-05-30 03:29:00,74.4,67.5,29.88,SSE,157,0.0,5.0,79,0.00,,SCT100,0.00,VWS V14.01,2013-05-30 08:29:00,
2013-05-30 03:34:00,74.4,67.5,29.89,South,190,0.0,5.0,79,0.00,,SCT100,0.00,VWS V14.01,2013-05-30 08:34:00,
2013-05-30 03:39:00,74.4,67.5,29.89,SSE,163,6.0,6.0,79,0.00,,SCT100,0.00,VWS V14.01,2013-05-30 08:39:00,
2013-05-30 03:44:00,74.4,67.5,29.89,SE,126,1.0,6.0,79,0.00,,CLR,0.00,VWS V14.01,2013-05-30 08:44:00,
2013-05-30 03:49:00,74.3,67.4,29.89,South,184,3.0,7.0,79,0.00,,CLR,0.00,VWS V14.01,2013-05-30 08:49:00,
2013-05-30 03:54:00,74.2,67.3,29.89,SE,146,2.0,7.0,79,0.00,,CLR,0.00,VWS V14.01,2013-05-30 08:54:00,
2013-05-30 03:59:00,74.2,67.3,29.89,SSW,204,0.0,7.0,79,0.00,,CLR,0.00,VWS V14.01,2013-05-30 08:59:00,
2013-05-30 04:04:00,74.2,67.3,29.89,SE,137,0.0,4.0,79,0.00,,CLR,0.00,VWS V14.01,2013-05-30 09:04:00,
2013-05-30 04:09:00,74.2,67.3,29.90,SSE,168,0.0,5.0,79,0.00,,CLR,0.00,VWS V14.01,2013-05-30 09:09:00,
2013-05-30 04:14:00,74.1,67.2,29.90,SSE,168,1.0,5.0,79,0.00,,CLR,0.00,VWS V14.01,2013-05-30 09:14:00,
2013-05-30 04:19:00,74.0,67.1,29.90,SSE,162,0.0,6.0,79,0.00,,CLR,0.00,VWS V14.01,2013-05-30 09:19:00,
2013-05-30 04:24:00,73.9,67.3,29.90,South,181,0.0,2.0,80,0.00,,CLR,0.00,VWS V14.01,2013-05-30 09:24:00,
2013-05-30 04:29:00,73.8,67.2,29.90,SW,217,5.0,8.0,80,0.00,,CLR,0.00,VWS V14.01,2013-05-30 09:29:00,
2013-05-30 04:34:00,73.7,67.2,29.90,SSW,202,0.0,5.0,80,0.00,,CLR,0.00,VWS V14.01,2013-05-30 09:34:00,
2013-05-30 04:39:00,73.8,67.2,29.90,South,178,5.0,8.0,80,0.00,,CLR,0.00,VWS V14.01,2013-05-30 09:39:00,
2013-05-30 04:44:00,73.7,67.2,29.90,SW,217,0.0,3.0,80,0.00,,CLR,0.00,VWS V14.01,2013-05-30 09:44:00,
2013-05-30 04:49:00,73.8,67.2,29.90,SE,130,0.0,5.0,80,0.00,,CLR,0.00,VWS V14.01,2013-05-30 09:49:00,
2013-05-30 04:54:00,73.9,67.3,29.90,South,183,0.0,7.0,80,0.00,,CLR,0.00,VWS V14.01,2013-05-30 09:54:00,
2013-05-30 04:59:00,73.9,67.3,29.90,SW,222,0.0,7.0,80,0.00,,CLR,0.00,VWS V14.01,2013-05-30 09:59:00,
2013-05-30 05:04:00,74.0,67.4,29.90,SSE,153,0.0,9.0,80,0.00,,SCT048,0.00,VWS V14.01,2013-05-30 10:04:00,
2013-05-30 05:09:00,74.2,67.3,29.90,SSE,150,0.0,9.0,79,0.00,,SCT048,0.00,VWS V14.01,2013-05-30 10:09:00,
2013-05-30 05:14:00,74.3,67.4,29.90,South,187,0.0,5.0,79,0.00,,SCT048,0.00,VWS V14.01,2013-05-30 10:14:00,
2013-05-30 05:19:00,74.3,67.4,29.90,SSW,202,0.0,8.0,79,0.00,,SCT048,0.00,VWS V14.01,2013-05-30 10:19:00,
2013-05-30 05:24:00,74.3,67.4,29.90,South,169,1.0,6.0,79,0.00,,SCT048,0.00,VWS V14.01,2013-05-30 10:24:00,
2013-05-30 05:29:00,74.3,67.4,29.90,SSE,167,0.0,6.0,79,0.00,,SCT048,0.00,VWS V14.01,2013-05-30 10:29:00,
2013-05-30 05:34:00,74.4,67.5,29.91,SSW,198,4.0,6.0,79,0.00,,SCT048,0.00,VWS V14.01,2013-05-30 10:34:00,
2013-05-30 05:39:00,74.5,67.6,29.91,SE,130,0.0,8.0,79,0.00,,SCT048,0.00,VWS V14.01,2013-05-30 10:39:00,
2013-05-30 05:44:00,74.6,67.7,29.91,SSE,155,0.0,9.0,79,0.00,,CLR,0.00,VWS V14.01,2013-05-30 10:44:00,
2013-05-30 05:49:00,74.7,67.8,29.91,South,186,3.0,9.0,79,0.00,,CLR,0.00,VWS V14.01,2013-05-30 10:49:00,
2013-05-30 05:54:00,74.9,67.9,29.91,South,171,6.0,10.0,79,0.00,,CLR,0.00,VWS V14.01,2013-05-30 10:54:00,
2013-05-30 05:59:00,75.1,67.8,29.91,South,179,6.0,10.0,78,0.00,,CLR,0.00,VWS V14.01,2013-05-30 10:59:00,
2013-05-30 06:04:00,75.2,67.9,29.91,South,188,0.0,7.0,78,0.00,,CLR,0.00,VWS V14.01,2013-05-30 11:04:00,
2013-05-30 06:09:00,75.2,67.9,29.91,SSW,195,2.0,9.0,78,0.00,,CLR,0.00,VWS V14.01,2013-05-30 11:09:00,
2013-05-30 06:14:00,75.2,67.9,29.91,SSW,204,1.0,10.0,78,0.00,,CLR,0.00,VWS V14.01,2013-05-30 11:14:00,
2013-05-30 06:19:00,75.3,68.3,29.91,ESE,121,2.0,10.0,79,0.00,,CLR,0.00,VWS V14.01,2013-05-30 11:19:00,
2013-05-30 06:24:00,75.3,68.3,29.91,SSW,198,0.0,9.0,79,0.00,,CLR,0.00,VWS V14.01,2013-05-30 11:24:00,
2013-05-30 06:29:00,75.3,68.3,29.91,SSE,162,6.0,9.0,79,0.00,,CLR,0.00,VWS V14.01,2013-05-30 11:29:00,
2013-05-30 06:34:00,75.3,68.3,29.91,South,171,0.0,6.0,79,0.00,,CLR,0.00,VWS V14.01,2013-05-30 11:34:00,
2013-05-30 06:39:00,75.3,68.3,29.91,SSE,167,1.0,8.0,79,0.00,,CLR,0.00,VWS V14.01,2013-05-30 11:39:00,
2013-05-30 06:44:00,75.3,68.3,29.91,SW,221,1.0,11.0,79,0.00,,CLR,0.00,VWS V14.01,2013-05-30 11:44:00,
2013-05-30 06:49:00,75.5,68.5,29.91,South,188,1.0,11.0,79,0.00,,CLR,0.00,VWS V14.01,2013-05-30 11:49:00,
2013-05-30 06:54:00,75.6,68.6,29.91,South,184,2.0,10.0,79,0.00,,CLR,0.00,VWS V14.01,2013-05-30 11:54:00,
2013-05-30 06:59:00,75.8,68.8,29.91,SSE,147,1.0,10.0,79,0.00,,CLR,0.00,VWS V14.01,2013-05-30 11:59:00,
2013-05-30 07:04:00,76.0,68.7,29.91,SSE,161,1.0,9.0,78,0.00,,CLR,0.00,VWS V14.01,2013-05-30 12:04:00,
2013-05-30 07:09:00,75.9,68.6,29.91,SSE,161,4.0,9.0,78,0.00,,CLR,0.00,VWS V14.01,2013-05-30 12:09:00,
2013-05-30 07:14:00,75.8,68.8,29.91,WSW,254,2.0,7.0,79,0.00,,CLR,0.00,VWS V14.01,2013-05-30 12:14:00,
2013-05-30 07:19:00,75.8,68.8,29.91,SSE,160,5.0,13.0,79,0.00,,CLR,0.00,VWS V14.01,2013-05-30 12:19:00,
2013-05-30 07:24:00,75.7,68.7,29.91,ESE,113,6.0,8.0,79,0.00,,CLR,0.00,VWS V14.01,2013-05-30 12:24:00,
2013-05-30 07:29:00,75.8,68.8,29.91,SSW,196,5.0,11.0,79,0.00,,CLR,0.00,VWS V14.01,2013-05-30 12:29:00,
2013-05-30 07:34:00,76.0,69.0,29.91,SSW,209,3.0,14.0,79,0.00,,CLR,0.00,VWS V14.01,2013-05-30 12:34:00,
2013-05-30 07:39:00,76.4,69.4,29.91,SE,141,0.0,14.0,79,0.00,,CLR,0.00,VWS V14.01,2013-05-30 12:39:00,
2013-05-30 07:44:00,76.7,69.3,29.92,SSW,197,4.0,10.0,78,0.00,,CLR,0.00,VWS V14.01,2013-05-30 12:44:00,
2013-05-30 07:49:00,76.7,69.3,29.92,SSE,159,2.0,10.0,78,0.00,,CLR,0.00,VWS V14.01,2013-05-30 12:49:00,
2013-05-30 07:54:00,76.5,69.1,29.92,SSW,211,6.0,9.0,78,0.00,,CLR,0.00,VWS V14.01,2013-05-30 12:54:00,
2013-05-30 08:00:00,76.5,69.1,29.92,SSE,155,0.0,9.0,78,0.00,,CLR,0.00,VWS V14.01,2013-05-30 13:00:00,
2013-05-30 08:05:00,76.5,69.1,29.92,South,180,5.0,15.0,78,0.00,,SCT110,0.00,VWS V14.01,2013-05-30 13:05:00,
2013-05-30 08:10:00,76.6,69.2,29.92,South,180,2.0,15.0,78,0.00,,SCT110,0.00,VWS V14.01,2013-05-30 13:10:00,
2013-05-30 08:15:00,76.7,69.3,29.92,SSW,201,7.0,10.0,78,0.00,,SCT110,0.00,VWS V14.01,2013-05-30 13:15:00,
2013-05-30 08:20:00,76.8,69.4,29.92,South,169,4.0,10.0,78,0.00,,SCT110,0.00,VWS V14.01,2013-05-30 13:20:00,
2013-05-30 08:25:00,77.0,69.6,29.92,SSW,200,2.0,14.0,78,0.00,,SCT110,0.00,VWS V14.01,2013-05-30 13:25:00,
2013-05-30 08:30:00,77.0,69.6,29.92,SSW,200,5.0,14.0,78,0.00,,SCT110,0.00,VWS V14.01,2013-05-30 13:30:00,
2013-05-30 08:35:00,77.1,69.7,29.92,SSW,205,6.0,12.0,78,0.00,,SCT110,0.00,VWS V14.01,2013-05-30 13:35:00,
2013-05-30 08:40:00,77.3,69.9,29.92,SSW,205,2.0,12.0,78,0.00,,SCT110,0.00,VWS V14.01,2013-05-30 13:40:00,
2013-05-30 08:45:00,77.5,69.7,29.92,South,182,9.0,12.0,77,0.00,,BKN110,0.00,VWS V14.01,2013-05-30 13:45:00,
2013-05-30 08:50:00,77.7,69.9,29.92,SSW,209,1.0,13.0,77,0.00,,BKN110,0.00,VWS V14.01,2013-05-30 13:50:00,
2013-05-30 08:55:00,78.0,69.8,29.92,South,183,4.0,13.0,76,0.00,,BKN110,0.00,VWS V14.01,2013-05-30 13:55:00,
2013-05-30 09:00:00,77.9,69.7,29.92,South,180,12.0,15.0,76,0.00,,BKN110,0.00,VWS V14.01,2013-05-30 14:00:00,
2013-05-30 09:05:00,77.7,69.5,29.93,South,188,3.0,12.0,76,0.00,,BKN110,0.00,VWS V14.01,2013-05-30 14:05:00,
2013-05-30 09:10:00,77.6,69.8,29.93,South,176,2.0,12.0,77,0.00,,BKN110,0.00,VWS V14.01,2013-05-30 14:10:00,
2013-05-30 09:15:00,77.7,69.9,29.92,SSW,192,5.0,10.0,77,0.00,,BKN110,0.00,VWS V14.01,2013-05-30 14:15:00,
2013-05-30 09:20:00,77.8,69.6,29.92,SW,220,2.0,18.0,76,0.00,,BKN110,0.00,VWS V14.01,2013-05-30 14:20:00,
2013-05-30 09:25:00,77.9,69.7,29.92,SSW,200,5.0,19.0,76,0.00,,BKN110,0.00,VWS V14.01,2013-05-30 14:25:00,
2013-05-30 09:30:00,78.0,69.8,29.92,SSW,200,3.0,19.0,76,0.00,,BKN110,0.00,VWS V14.01,2013-05-30 14:30:00,
2013-05-30 09:35:00,78.3,70.1,29.92,South,184,1.0,15.0,76,0.00,,BKN110,0.00,VWS V14.01,2013-05-30 14:35:00,
2013-05-30 09:40:00,78.6,70.0,29.91,South,186,11.0,15.0,75,0.00,,BKN110,0.00,VWS V14.01,2013-05-30 14:40:00,
2013-05-30 09:45:00,78.7,70.1,29.91,South,188,1.0,7.0,75,0.00,,BKN049,0.00,VWS V14.01,2013-05-30 14:45:00,
2013-05-30 09:50:00,79.6,71.4,29.91,SSW,202,9.0,10.0,76,0.00,,BKN049,0.00,VWS V14.01,2013-05-30 14:50:00,
2013-05-30 09:55:00,79.8,70.8,29.91,South,187,4.0,9.0,74,0.00,,BKN049,0.00,VWS V14.01,2013-05-30 14:55:00,
2013-05-30 10:00:00,79.6,70.6,29.91,South,186,2.0,10.0,74,0.00,,BKN049,0.00,VWS V14.01,2013-05-30 15:00:00,
2013-05-30 10:05:00,79.4,70.8,29.92,SSE,168,1.0,12.0,75,0.00,,BKN041,0.00,VWS V14.01,2013-05-30 15:05:00,
2013-05-30 10:10:00,79.2,70.2,29.92,South,186,7.0,12.0,74,0.00,,BKN041,0.00,VWS V14.01,2013-05-30 15:10:00,
2013-05-30 10:15:00,79.0,70.4,29.92,South,186,7.0,10.0,75,0.00,,BKN041,0.00,VWS V14.01,2013-05-30 15:15:00,
2013-05-30 10:20:00,78.7,70.1,29.92,South,182,4.0,10.0,75,0.00,,BKN041,0.00,VWS V14.01,2013-05-30 15:20:00,
2013-05-30 10:25:00,78.9,70.7,29.92,SSW,194,1.0,7.0,76,0.00,,BKN041,0.00,VWS V14.01,2013-05-30 15:25:00,
2013-05-30 10:30:00,79.1,70.5,29.91,South,186,8.0,10.0,75,0.00,,BKN041,0.00,VWS V14.01,2013-05-30 15:30:00,
2013-05-30 10:35:00,79.1,70.1,29.91,SSW,206,3.0,13.0,74,0.00,,BKN041,0.00,VWS V14.01,2013-05-30 15:35:00,
2013-05-30 10:40:00,79.0,70.4,29.91,South,180,0.0,13.0,75,0.00,,BKN041,0.00,VWS V14.01,2013-05-30 15:40:00,
2013-05-30 10:45:00,78.9,70.3,29.91,South,182,1.0,8.0,75,0.00,,OVC036,0.00,VWS V14.01,2013-05-30 15:45:00,
2013-05-30 10:50:00,79.1,70.5,29.91,SSW,204,5.0,8.0,75,0.00,,OVC036,0.00,VWS V14.01,2013-05-30 15:50:00,
2013-05-30 10:55:00,79.3,70.3,29.91,SW,234,3.0,14.0,74,0.00,,OVC036,0.00,VWS V14.01,2013-05-30 15:55:00,
2013-05-30 11:00:00,80.4,71.4,29.91,SE,144,8.0,14.0,74,0.00,,OVC036,0.00,VWS V14.01,2013-05-30 16:00:00,
2013-05-30 11:05:00,80.8,70.9,29.91,South,170,6.0,9.0,72,0.00,,OVC045,0.00,VWS V14.01,2013-05-30 16:05:00,
2013-05-30 11:10:00,80.7,70.8,29.91,South,187,8.0,12.0,72,0.00,,OVC045,0.00,VWS V14.01,2013-05-30 16:10:00,
2013-05-30 11:15:00,80.4,70.6,29.91,SW,215,7.0,13.0,72,0.00,,OVC045,0.00,VWS V14.01,2013-05-30 16:15:00,
2013-05-30 11:20:00,80.3,70.5,29.91,South,180,3.0,13.0,72,0.00,,OVC045,0.00,VWS V14.01,2013-05-30 16:20:00,
2013-05-30 11:25:00,81.2,71.3,29.91,South,191,5.0,10.0,72,0.00,,OVC045,0.00,VWS V14.01,2013-05-30 16:25:00,
2013-05-30 11:30:00,81.7,71.0,29.91,WSW,239,8.0,14.0,70,0.00,,OVC045,0.00,VWS V14.01,2013-05-30 16:30:00,
2013-05-30 11:35:00,81.4,71.5,29.91,SSW,211,3.0,21.0,72,0.00,,BKN048,0.00,VWS V14.01,2013-05-30 16:35:00,
2013-05-30 11:40:00,81.5,71.6,29.91,South,190,3.0,21.0,72,0.00,,BKN048,0.00,VWS V14.01,2013-05-30 16:40:00,
2013-05-30 11:45:00,81.5,71.6,29.91,SSW,196,1.0,9.0,72,0.00,,BKN048,0.00,VWS V14.01,2013-05-30 16:45:00,
2013-05-30 11:50:00,81.7,71.0,29.90,South,182,8.0,11.0,70,0.00,,BKN048,0.00,VWS V14.01,2013-05-30 16:50:00,
2013-05-30 11:55:00,82.6,72.2,29.90,South,175,11.0,17.0,71,0.00,,BKN048,0.00,VWS V14.01,2013-05-30 16:55:00,
2013-05-30 12:00:00,82.5,70.9,29.90,SW,232,3.0,17.0,68,0.00,,BKN048,0.00,VWS V14.01,2013-05-30 17:00:00,
2013-05-30 12:05:00,82.0,70.4,29.90,SW,219,12.0,18.0,68,0.00,,SCT048,0.00,VWS V14.01,2013-05-30 17:05:00,
2013-05-30 12:10:00,81.5,69.9,29.90,SSW,209,9.0,23.0,68,0.00,,SCT048,0.00,VWS V14.01,2013-05-30 17:10:00,
2013-05-30 12:15:00,81.3,70.2,29.90,South,184,6.0,13.0,69,0.00,,SCT048,0.00,VWS V14.01,2013-05-30 17:15:00,
2013-05-30 12:20:00,81.4,70.3,29.89,South,191,6.0,14.0,69,0.00,,SCT048,0.00,VWS V14.01,2013-05-30 17:20:00,
2013-05-30 12:25:00,81.3,70.2,29.90,SSW,192,4.0,13.0,69,0.00,,SCT048,0.00,VWS V14.01,2013-05-30 17:25:00,
2013-05-30 12:30:00,81.0,70.3,29.90,SSW,200,9.0,13.0,70,0.00,,SCT048,0.00,VWS V14.01,2013-05-30 17:30:00,
2013-05-30 12:35:00,81.4,70.3,29.90,SSW,205,3.0,14.0,69,0.00,,SCT048,0.00,VWS V14.01,2013-05-30 17:35:00,
2013-05-30 12:40:00,81.6,70.4,29.90,SW,215,10.0,18.0,69,0.00,,SCT048,0.00,VWS V14.01,2013-05-30 17:40:00,
2013-05-30 12:45:00,81.8,71.1,29.90,South,185,7.0,21.0,70,0.00,,BKN050,0.00,VWS V14.01,2013-05-30 17:45:00,
2013-05-30 12:50:00,82.5,70.9,29.90,SW,215,3.0,21.0,68,0.00,,BKN050,0.00,VWS V14.01,2013-05-30 17:50:00,
2013-05-30 12:55:00,82.4,70.8,29.90,South,170,7.0,12.0,68,0.00,,BKN050,0.00,VWS V14.01,2013-05-30 17:55:00,
2013-05-30 13:00:00,82.3,70.7,29.90,South,182,5.0,12.0,68,0.00,,BKN050,0.00,VWS V14.01,2013-05-30 18:00:00,
2013-05-30 13:05:00,82.2,70.6,29.90,South,175,9.0,15.0,68,0.00,,BKN060,0.00,VWS V14.01,2013-05-30 18:05:00,
2013-05-30 13:10:00,81.8,70.2,29.90,South,177,6.0,15.0,68,0.00,,BKN060,0.00,VWS V14.01,2013-05-30 18:10:00,
2013-05-30 13:15:00,80.7,71.2,29.90,WSW,250,6.0,11.0,73,0.01,,BKN060,0.01,VWS V14.01,2013-05-30 18:15:00,
2013-05-30 13:20:00,79.9,71.7,29.90,SSW,196,6.0,11.0,76,0.01,,BKN060,0.01,VWS V14.01,2013-05-30 18:20:00,
2013-05-30 13:25:00,81.1,71.6,29.90,SSW,209,7.0,12.0,73,0.01,,BKN060,0.01,VWS V14.01,2013-05-30 18:25:00,
2013-05-30 13:30:00,81.8,71.1,29.89,SSW,195,16.0,22.0,70,0.01,,BKN060,0.01,VWS V14.01,2013-05-30 18:30:00,
2013-05-30 13:35:00,82.2,71.0,29.89,SSW,208,4.0,21.0,69,0.01,,BKN060,0.01,VWS V14.01,2013-05-30 18:35:00,
2013-05-30 13:40:00,82.8,71.6,29.89,South,182,7.0,21.0,69,0.01,,BKN060,0.01,VWS V14.01,2013-05-30 18:40:00,
2013-05-30 13:45:00,83.1,71.0,29.89,South,174,9.0,14.0,67,0.01,,-RA,0.01,VWS V14.01,2013-05-30 18:45:00,
2013-05-30 13:50:00,83.5,70.5,29.90,South,171,7.0,17.0,65,0.01,,-RA,0.01,VWS V14.01,2013-05-30 18:50:00,
2013-05-30 13:55:00,83.6,70.1,29.89,East,98,4.0,17.0,64,0.01,,-RA,0.01,VWS V14.01,2013-05-30 18:55:00,
2013-05-30 14:00:00,83.5,70.9,29.89,South,186,1.0,17.0,66,0.01,,-RA,0.01,VWS V14.01,2013-05-30 19:00:00,
2013-05-30 14:05:00,83.2,70.2,29.89,South,174,9.0,18.0,65,0.01,,SCT050,0.01,VWS V14.01,2013-05-30 19:05:00,
2013-05-30 14:10:00,82.9,69.9,29.89,South,186,9.0,18.0,65,0.01,,SCT050,0.01,VWS V14.01,2013-05-30 19:10:00,
2013-05-30 14:15:00,82.5,70.0,29.89,South,184,1.0,12.0,66,0.01,,SCT050,0.01,VWS V14.01,2013-05-30 19:15:00,
2013-05-30 14:20:00,82.0,70.0,29.89,SSW,197,3.0,20.0,67,0.01,,SCT050,0.01,VWS V14.01,2013-05-30 19:20:00,
2013-05-30 14:25:00,80.0,71.0,29.90,SW,227,5.0,15.0,74,0.01,,SCT050,0.02,VWS V14.01,2013-05-30 19:25:00,
2013-05-30 14:30:00,76.7,68.9,29.89,South,178,8.0,15.0,77,0.01,,SCT050,0.02,VWS V14.01,2013-05-30 19:30:00,
2013-05-30 14:35:00,74.8,67.5,29.88,South,174,5.0,9.0,78,0.01,,SCT050,0.02,VWS V14.01,2013-05-30 19:35:00,
2013-05-30 14:40:00,74.3,67.7,29.88,SSW,194,0.0,9.0,80,0.01,,SCT050,0.02,VWS V14.01,2013-05-30 19:40:00,
2013-05-30 14:45:00,74.3,68.1,29.88,SE,138,4.0,4.0,81,0.01,,SCT055,0.02,VWS V14.01,2013-05-30 19:45:00,
2013-05-30 14:50:00,74.5,68.7,29.87,South,190,11.0,11.0,82,0.01,,SCT055,0.02,VWS V14.01,2013-05-30 19:50:00,
2013-05-30 14:55:00,74.8,68.9,29.87,SE,145,2.0,10.0,82,0.01,,SCT040,0.02,VWS V14.01,2013-05-30 19:55:00,
2013-05-30 15:00:00,75.2,69.0,29.88,SW,228,5.0,12.0,81,0.01,,SCT040,0.02,VWS V14.01,2013-05-30 20:00:00,
2013-05-30 15:05:00,75.4,69.2,29.88,South,175,0.0,9.0,81,0.01,,SCT040,0.02,VWS V14.01,2013-05-30 20:05:00,
2013-05-30 15:10:00,75.4,68.8,29.88,SSW,204,1.0,9.0,80,0.01,,SCT040,0.02,VWS V14.01,2013-05-30 20:10:00,
2013-05-30 15:15:00,75.2,68.6,29.87,South,191,2.0,8.0,80,0.01,,SCT040,0.02,VWS V14.01,2013-05-30 20:15:00,
2013-05-30 15:20:00,75.0,68.8,29.87,SW,232,2.0,8.0,81,0.01,,SCT040,0.02,VWS V14.01,2013-05-30 20:20:00,
2013-05-30 15:25:00,74.9,68.7,29.87,SSW,193,4.0,12.0,81,0.01,,SCT040,0.02,VWS V14.01,2013-05-30 20:25:00,
2013-05-30 15:30:00,74.9,68.7,29.87,South,177,9.0,12.0,81,0.01,,SCT040,0.02,VWS V14.01,2013-05-30 20:30:00,
2013-05-30 15:35:00,74.9,69.0,29.87,SW,215,5.0,10.0,82,0.00,,SCT040,0.02,VWS V14.01,2013-05-30 20:35:00,
2013-05-30 15:40:00,74.6,68.4,29.87,SSE,148,11.0,11.0,81,0.00,,SCT040,0.02,VWS V14.01,2013-05-30 20:40:00,
2013-05-30 15:45:00,74.5,68.3,29.87,SSW,196,3.0,17.0,81,0.00,,RA,0.02,VWS V14.01,2013-05-30 20:45:00,
2013-05-30 15:50:00,74.6,68.4,29.87,SW,217,5.0,17.0,81,0.00,,RA,0.02,VWS V14.01,2013-05-30 20:50:00,
2013-05-30 15:55:00,75.3,69.1,29.86,South,190,4.0,10.0,81,0.00,,RA,0.02,VWS V14.01,2013-05-30 20:55:00,
2013-05-30 16:00:00,76.3,69.3,29.87,South,182,11.0,16.0,79,0.00,,RA,0.02,VWS V14.01,2013-05-30 21:00:00,
2013-05-30 16:05:00,76.7,69.3,29.85,South,184,7.0,11.0,78,0.00,,-RA,0.02,VWS V14.01,2013-05-30 21:05:00,
2013-05-30 16:10:00,76.9,69.5,29.85,South,190,6.0,11.0,78,0.00,,-RA,0.02,VWS V14.01,2013-05-30 21:10:00,
2013-05-30 16:15:00,77.1,68.6,29.85,South,174,4.0,14.0,75,0.00,,-RA,0.02,VWS V14.01,2013-05-30 21:15:00,
2013-05-30 16:21:00,77.7,69.5,29.84,SW,236,3.0,14.0,76,0.00,,-RA,0.02,VWS V14.01,2013-05-30 21:21:00,
2013-05-30 16:26:00,78.9,69.9,29.84,SSW,204,6.0,7.0,74,0.00,,-RA,0.02,VWS V14.01,2013-05-30 21:26:00,
2013-05-30 16:31:00,79.2,70.2,29.84,SE,142,2.0,10.0,74,0.00,,-RA,0.02,VWS V14.01,2013-05-30 21:31:00,
2013-05-30 16:36:00,79.8,70.4,29.84,South,170,6.0,11.0,73,0.00,,-RA,0.02,VWS V14.01,2013-05-30 21:36:00,
2013-05-30 16:41:00,80.3,70.9,29.84,SSE,153,10.0,11.0,73,0.00,,-RA,0.02,VWS V14.01,2013-05-30 21:41:00,
2013-05-30 16:46:00,80.6,71.2,29.83,South,178,1.0,7.0,73,0.00,,CLR,0.02,VWS V14.01,2013-05-30 21:46:00,
2013-05-30 16:51:00,81.0,71.5,29.83,East,88,7.0,7.0,73,0.00,,CLR,0.02,VWS V14.01,2013-05-30 21:51:00,
2013-05-30 16:56:00,81.5,72.0,29.82,SSW,205,3.0,7.0,73,0.00,,CLR,0.02,VWS V14.01,2013-05-30 21:56:00,
2013-05-30 17:01:00,81.7,71.4,29.82,SSW,207,3.0,10.0,71,0.00,,CLR,0.02,VWS V14.01,2013-05-30 22:01:00,
2013-05-30 17:06:00,81.8,71.5,29.82,South,186,7.0,13.0,71,0.00,,CLR,0.02,VWS V14.01,2013-05-30 22:06:00,
2013-05-30 17:11:00,81.7,71.4,29.82,SSW,207,10.0,13.0,71,0.00,,CLR,0.02,VWS V14.01,2013-05-30 22:11:00,
2013-05-30 17:16:00,81.6,71.3,29.82,South,190,6.0,15.0,71,0.00,,CLR,0.02,VWS V14.01,2013-05-30 22:16:00,
2013-05-30 17:21:00,81.8,71.5,29.82,SSW,192,3.0,15.0,71,0.00,,CLR,0.02,VWS V14.01,2013-05-30 22:21:00,
2013-05-30 17:26:00,82.0,71.3,29.82,WSW,241,7.0,11.0,70,0.00,,CLR,0.02,VWS V14.01,2013-05-30 22:26:00,
2013-05-30 17:31:00,81.8,70.6,29.82,South,178,8.0,11.0,69,0.00,,CLR,0.02,VWS V14.01,2013-05-30 22:31:00,
2013-05-30 17:36:00,81.6,70.4,29.82,SSW,207,8.0,11.0,69,0.00,,CLR,0.02,VWS V14.01,2013-05-30 22:36:00,
2013-05-30 17:41:00,81.2,70.5,29.82,South,184,2.0,11.0,70,0.00,,CLR,0.02,VWS V14.01,2013-05-30 22:41:00,
2013-05-30 17:46:00,81.1,70.8,29.82,SSW,194,3.0,7.0,71,0.00,,CLR,0.02,VWS V14.01,2013-05-30 22:46:00,
2013-05-30 17:51:00,81.1,70.8,29.82,SSW,198,1.0,7.0,71,0.00,,CLR,0.02,VWS V14.01,2013-05-30 22:51:00,
2013-05-30 17:56:00,81.0,71.1,29.82,South,169,0.0,6.0,72,0.00,,CLR,0.02,VWS V14.01,2013-05-30 22:56:00,
2013-05-30 18:01:00,80.8,70.5,29.82,SSW,200,13.0,13.0,71,0.00,,CLR,0.02,VWS V14.01,2013-05-30 23:01:00,
2013-05-30 18:06:00,80.6,70.8,29.82,South,178,4.0,9.0,72,0.00,,CLR,0.02,VWS V14.01,2013-05-30 23:06:00,
2013-05-30 18:11:00,80.5,71.1,29.82,SSW,192,0.0,9.0,73,0.00,,CLR,0.02,VWS V14.01,2013-05-30 23:11:00,
2013-05-30 18:16:00,80.5,71.1,29.82,SSE,163,5.0,7.0,73,0.00,,CLR,0.02,VWS V14.01,2013-05-30 23:16:00,
2013-05-30 18:21:00,80.3,70.9,29.82,South,183,8.0,8.0,73,0.00,,CLR,0.02,VWS V14.01,2013-05-30 23:21:00,
2013-05-30 18:26:00,80.1,70.7,29.82,South,172,6.0,8.0,73,0.00,,CLR,0.02,VWS V14.01,2013-05-30 23:26:00,
2013-05-30 18:31:00,79.9,70.9,29.82,South,175,0.0,8.0,74,0.00,,CLR,0.02,VWS V14.01,2013-05-30 23:31:00,
2013-05-30 18:36:00,79.7,71.1,29.83,SSW,197,1.0,4.0,75,0.00,,CLR,0.02,VWS V14.01,2013-05-30 23:36:00,
2013-05-30 18:41:00,79.4,70.8,29.84,South,184,1.0,6.0,75,0.00,,CLR,0.02,VWS V14.01,2013-05-30 23:41:00,
2013-05-30 18:46:00,79.2,70.6,29.84,South,191,0.0,9.0,75,0.00,,CLR,0.02,VWS V14.01,2013-05-30 23:46:00,
2013-05-30 18:51:00,79.1,70.9,29.84,South,171,1.0,9.0,76,0.00,,CLR,0.02,VWS V14.01,2013-05-30 23:51:00,
2013-05-30 18:56:00,78.9,70.7,29.85,SW,230,0.0,6.0,76,0.00,,CLR,0.02,VWS V14.01,2013-05-30 23:56:00,
2013-05-30 19:01:00,78.7,70.5,29.85,SW,229,0.0,6.0,76,0.00,,CLR,0.02,VWS V14.01,2013-05-31 00:01:00,
2013-05-30 19:06:00,78.5,70.3,29.85,SSW,193,0.0,3.0,76,0.00,,SCT100,0.02,VWS V14.01,2013-05-31 00:06:00,
2013-05-30 19:11:00,78.5,70.3,29.85,South,190,1.0,12.0,76,0.00,,SCT100,0.02,VWS V14.01,2013-05-31 00:11:00,
2013-05-30 19:16:00,78.4,70.2,29.84,South,180,0.0,5.0,76,0.00,,SCT100,0.02,VWS V14.01,2013-05-31 00:16:00,
2013-05-30 19:21:00,78.4,70.2,29.84,SSE,166,0.0,6.0,76,0.00,,SCT100,0.02,VWS V14.01,2013-05-31 00:21:00,
2013-05-30 19:26:00,78.3,70.5,29.84,SSE,166,0.0,5.0,77,0.00,,SCT100,0.02,VWS V14.01,2013-05-31 00:26:00,
2013-05-30 19:31:00,78.2,70.4,29.85,WSW,249,7.0,8.0,77,0.00,,SCT100,0.02,VWS V14.01,2013-05-31 00:31:00,
2013-05-30 19:36:00,77.1,66.6,29.86,West,259,3.0,14.0,70,0.00,,SCT100,0.02,VWS V14.01,2013-05-31 00:36:00,
2013-05-30 19:41:00,75.6,65.5,29.87,WSW,247,4.0,14.0,71,0.00,,SCT100,0.02,VWS V14.01,2013-05-31 00:41:00,
2013-05-30 19:46:00,74.1,64.5,29.88,West,263,1.0,9.0,72,0.00,,CLR,0.02,VWS V14.01,2013-05-31 00:46:00,
2013-05-30 19:51:00,72.6,64.2,29.87,WSW,241,7.0,9.0,75,0.00,,CLR,0.02,VWS V14.01,2013-05-31 00:51:00,
2013-05-30 19:56:00,71.5,63.9,29.87,WSW,242,0.0,4.0,77,0.00,,CLR,0.02,VWS V14.01,2013-05-31 00:56:00,
2013-05-30 20:01:00,70.9,63.7,29.87,SW,228,2.0,4.0,78,0.00,,CLR,0.02,VWS V14.01,2013-05-31 01:01:00,
2013-05-30 20:06:00,70.6,63.8,29.86,SW,228,0.0,1.0,79,0.00,,SCT070,0.02,VWS V14.01,2013-05-31 01:06:00,
2013-05-30 20:11:00,70.4,63.6,29.87,SW,228,0.0,2.0,79,0.00,,SCT070,0.02,VWS V14.01,2013-05-31 01:11:00,
2013-05-30 20:16:00,70.3,63.8,29.87,West,261,0.0,5.0,80,0.00,,SCT070,0.02,VWS V14.01,2013-05-31 01:16:00,
2013-05-30 20:21:00,70.3,63.8,29.87,WSW,239,0.0,7.0,80,0.00,,SCT070,0.02,VWS V14.01,2013-05-31 01:21:00,
2013-05-30 20:26:00,70.3,64.2,29.88,SW,235,3.0,6.0,81,0.00,,SCT070,0.02,VWS V14.01,2013-05-31 01:26:00,
2013-05-30 20:31:00,70.4,64.3,29.85,South,179,0.0,6.0,81,0.02,,SCT070,0.04,VWS V14.01,2013-05-31 01:31:00,
2013-05-30 20:36:00,70.0,64.3,29.86,SW,227,1.0,7.0,82,0.02,,SCT070,0.04,VWS V14.01,2013-05-31 01:36:00,
2013-05-30 20:41:00,70.0,64.6,29.88,SSE,150,2.0,11.0,83,0.02,,SCT070,0.04,VWS V14.01,2013-05-31 01:41:00,
2013-05-30 20:46:00,69.7,64.3,29.88,South,171,2.0,6.0,83,0.02,,SCT060,0.04,VWS V14.01,2013-05-31 01:46:00,
2013-05-30 20:51:00,69.6,63.9,29.88,South,190,0.0,8.0,82,0.02,,SCT060,0.04,VWS V14.01,2013-05-31 01:51:00,
2013-05-30 20:56:00,69.5,63.8,29.90,South,175,2.0,10.0,82,0.02,,SCT060,0.04,VWS V14.01,2013-05-31 01:56:00,
2013-05-30 21:01:00,69.8,64.4,29.89,SSW,206,3.0,10.0,83,0.02,,SCT060,0.04,VWS V14.01,2013-05-31 02:01:00,
2013-05-30 21:06:00,70.2,64.4,29.91,SW,216,6.0,11.0,82,0.02,,BKN065,0.04,VWS V14.01,2013-05-31 02:06:00,
2013-05-30 21:11:00,70.0,64.6,29.89,WSW,248,4.0,13.0,83,0.02,,BKN065,0.04,VWS V14.01,2013-05-31 02:11:00,
2013-05-30 21:16:00,69.5,64.1,29.88,SSW,199,3.0,10.0,83,0.02,,BKN065,0.04,VWS V14.01,2013-05-31 02:16:00,
2013-05-30 21:21:00,69.1,63.7,29.88,South,173,7.0,10.0,83,0.02,,BKN065,0.04,VWS V14.01,2013-05-31 02:21:00,
2013-05-30 21:26:00,68.9,63.2,29.89,South,182,5.0,15.0,82,0.02,,BKN065,0.04,VWS V14.01,2013-05-31 02:26:00,
2013-05-30 21:31:00,68.8,63.4,29.88,SSE,167,13.0,16.0,83,0.02,,BKN065,0.04,VWS V14.01,2013-05-31 02:31:00,
2013-05-30 21:36:00,68.5,63.1,29.88,SSE,149,2.0,12.0,83,0.00,,BKN065,0.04,VWS V14.01,2013-05-31 02:36:00,
2013-05-30 21:41:00,68.2,62.8,29.87,SSE,148,0.0,12.0,83,0.00,,BKN065,0.04,VWS V14.01,2013-05-31 02:41:00,
2013-05-30 21:46:00,68.0,62.7,29.86,SSE,147,0.0,1.0,83,0.00,,OVC043,0.04,VWS V14.01,2013-05-31 02:46:00,
2013-05-30 21:51:00,67.8,62.5,29.87,SSE,147,0.0,1.0,83,0.00,,OVC043,0.04,VWS V14.01,2013-05-31 02:51:00,
2013-05-30 21:56:00,67.7,62.4,29.87,SSE,148,0.0,4.0,83,0.00,,OVC043,0.04,VWS V14.01,2013-05-31 02:56:00,
2013-05-30 22:01:00,67.6,62.3,29.86,SSE,148,0.0,4.0,83,0.00,,OVC043,0.04,VWS V14.01,2013-05-31 03:01:00,
2013-05-30 22:06:00,67.5,62.2,29.87,SSE,148,0.0,0.0,83,0.00,,OVC065,0.04,VWS V14.01,2013-05-31 03:06:00,
2013-05-30 22:11:00,67.4,62.1,29.87,SSE,160,0.0,5.0,83,0.00,,OVC065,0.04,VWS V14.01,2013-05-31 03:11:00,
2013-05-30 22:16:00,67.4,62.1,29.87,SSE,159,1.0,4.0,83,0.00,,OVC065,0.04,VWS V14.01,2013-05-31 03:16:00,
2013-05-30 22:21:00,67.3,62.0,29.88,SSE,150,0.0,6.0,83,0.00,,OVC065,0.04,VWS V14.01,2013-05-31 03:21:00,
2013-05-30 22:26:00,67.3,62.0,29.88,SE,140,0.0,5.0,83,0.00,,OVC065,0.04,VWS V14.01,2013-05-31 03:26:00,
2013-05-30 22:31:00,67.2,61.9,29.88,SSE,155,0.0,7.0,83,0.00,,OVC065,0.04,VWS V14.01,2013-05-31 03:31:00,
2013-05-30 22:36:00,67.2,61.9,29.88,SE,142,4.0,8.0,83,0.00,,OVC065,0.04,VWS V14.01,2013-05-31 03:36:00,
2013-05-30 22:41:00,67.1,61.8,29.89,SSE,149,0.0,8.0,83,0.00,,OVC065,0.04,VWS V14.01,2013-05-31 03:41:00,
2013-05-30 22:46:00,67.2,61.9,29.89,SE,130,0.0,5.0,83,0.00,,SCT120,0.04,VWS V14.01,2013-05-31 03:46:00,
2013-05-30 22:51:00,67.2,61.9,29.88,SSW,205,0.0,6.0,83,0.00,,SCT120,0.04,VWS V14.01,2013-05-31 03:51:00,
2013-05-30 22:56:00,67.2,61.9,29.88,ESE,103,0.0,5.0,83,0.00,,SCT120,0.04,VWS V14.01,2013-05-31 03:56:00,
2013-05-30 23:01:00,67.3,62.0,29.88,ESE,123,0.0,5.0,83,0.00,,SCT120,0.04,VWS V14.01,2013-05-31 04:01:00,
2013-05-30 23:06:00,67.4,62.1,29.88,South,186,1.0,5.0,83,0.00,,BKN060,0.04,VWS V14.01,2013-05-31 04:06:00,
2013-05-30 23:11:00,67.6,62.3,29.88,SSE,147,0.0,6.0,83,0.00,,BKN060,0.04,VWS V14.01,2013-05-31 04:11:00,
2013-05-30 23:16:00,67.7,62.4,29.87,SSE,154,0.0,6.0,83,0.00,,BKN060,0.04,VWS V14.01,2013-05-31 04:16:00,
2013-05-30 23:21:00,67.9,62.5,29.87,ENE,71,2.0,6.0,83,0.00,,BKN060,0.04,VWS V14.01,2013-05-31 04:21:00,
2013-05-30 23:26:00,68.2,62.8,29.87,South,182,0.0,9.0,83,0.00,,BKN060,0.04,VWS V14.01,2013-05-31 04:26:00,
2013-05-30 23:31:00,68.5,63.1,29.87,SE,134,9.0,9.0,83,0.00,,BKN060,0.04,VWS V14.01,2013-05-31 04:31:00,
2013-05-30 23:36:00,68.9,63.5,29.88,SSE,147,4.0,11.0,83,0.00,,BKN060,0.04,VWS V14.01,2013-05-31 04:36:00,
2013-05-30 23:41:00,69.2,63.8,29.88,South,178,5.0,11.0,83,0.00,,BKN060,0.04,VWS V14.01,2013-05-31 04:41:00,
2013-05-30 23:46:00,69.4,64.0,29.88,South,185,3.0,8.0,83,0.00,,BKN120,0.04,VWS V14.01,2013-05-31 04:46:00,
2013-05-30 23:51:00,69.7,64.3,29.88,South,183,3.0,10.0,83,0.00,,BKN120,0.04,VWS V14.01,2013-05-31 04:51:00,
2013-05-30 23:56:00,69.9,64.5,29.89,SSE,163,4.0,8.0,83,0.00,,BKN120,0.04,VWS V14.01,2013-05-31 04:56:00,